FW6803 Weather Reports


time (UTC)temp
C
wind
direction
speed
KPH
gust
KPH
rain 1hr
cm
rain 24hr
cm
rain mn
cm
humidity
%
barometer
mb
20260503211525 17 238 11.3 25.7 0.00 0.00 0.00 66 1005.2
20260503210023 18 288 8.0 24.1 0.00 0.00 0.00 66 1005.2
20260503204521 17 269 11.3 24.1 0.00 0.00 0.00 68 1005.2
20260503203023 17 254 11.3 24.1 0.00 0.00 0.00 70 1005.4
20260503201523 16 271 6.4 22.5 0.00 0.00 0.00 72 1005.5
20260503200018 16 221 6.4 19.3 0.00 0.00 0.00 70 1005.5
20260503194522 16 311 8.0 17.7 0.00 0.00 0.00 70 1005.6
20260503193015 16 288 14.5 24.1 0.00 0.00 0.00 70 1005.6
20260503191515 17 286 9.7 20.9 0.00 0.00 0.00 67 1005.7
20260503190012 17 304 8.0 19.3 0.00 0.00 0.00 69 1005.6
20260503184511 16 273 6.4 20.9 0.00 0.00 0.00 71 1005.6
20260503183009 16 277 1.6 14.5 0.00 0.00 0.00 72 1005.5
20260503181508 16 275 8.0 19.3 0.00 0.00 0.00 72 1005.6
20260503180018 16 34 3.2 16.1 0.00 0.00 0.00 74 1005.4
20260503174512 16 9 6.4 17.7 0.00 0.00 0.00 75 1005.4
20260503173002 15 294 4.8 17.7 0.00 0.00 0.00 75 1005.5
20260503171503 15 257 3.2 14.5 0.00 0.00 0.00 77 1005.4
20260503081502 12 333 1.6 12.9 0.00 0.00 0.00 85 1004.3
20260503071612 12 288 1.6 11.3 0.00 0.00 0.00 85 1004.2
20260503070113 12 281 4.8 14.5 0.00 0.00 0.00 85 1004.3
20260503060118 12 346 1.6 12.9 0.00 0.00 0.00 84 1004.4
20260503054559 12 273 3.2 11.3 0.00 0.00 0.00 84 1004.5
20260503053054 12 302 4.8 19.3 0.00 0.00 0.00 84 1004.7
20260503051555 12 331 9.7 19.3 0.00 0.00 0.00 84 1004.7
20260503050100 12 304 6.4 20.9 0.00 0.00 0.00 84 1004.7
20260503044554 12 289 6.4 16.1 0.00 0.00 0.00 84 1004.6
20260503043054 12 282 6.4 20.9 0.00 0.00 0.00 84 1004.4
20260503041552 12 288 11.3 22.5 0.00 0.00 0.00 84 1004.5
20260503040054 12 323 3.2 22.5 0.00 0.00 0.00 84 1004.4
20260503034553 12 288 4.8 20.9 0.00 0.00 0.00 84 1004.4
20260503033058 12 292 11.3 16.1 0.00 0.00 0.00 84 1004.1
20260503031549 12 327 11.3 27.4 0.00 0.00 0.00 83 1003.9
20260503030049 12 307 9.7 25.7 0.00 0.00 0.00 83 1003.7
20260503024550 12 307 11.3 29.0 0.00 0.00 0.00 82 1003.7
20260503023048 12 331 0.0 20.9 0.00 0.00 0.00 81 1003.7
20260503021544 13 340 4.8 14.5 0.00 0.00 0.00 81 1003.7
20260503020046 13 290 8.0 17.7 0.00 0.00 0.00 80 1003.7
20260503014551 13 53 8.0 20.9 0.00 0.00 0.00 79 1003.8
20260503013043 13 292 8.0 17.7 0.00 0.00 0.00 78 1003.9
20260503011549 13 302 6.4 22.5 0.00 0.00 0.00 77 1004.1
20260503010039 14 45 6.4 16.1 0.00 0.00 0.00 76 1004.0
20260503004540 14 319 3.2 16.1 0.00 0.00 0.00 76 1004.0
20260503003040 14 264 8.0 24.1 0.00 0.00 0.00 75 1004.1
20260503001537 15 265 4.8 16.1 0.00 0.00 0.00 75 1004.2
20260503000038 15 279 4.8 19.3 0.00 0.00 0.00 73 1004.3
20260502234547 16 263 8.0 19.3 0.00 0.00 0.00 71 1004.4
20260502233033 16 342 0.0 22.5 0.00 0.00 0.00 72 1004.4
20260502231531 15 327 12.9 24.1 0.00 0.00 0.00 72 1004.7
20260502230032 15 271 8.0 24.1 0.00 0.00 0.00 73 1004.8
20260502224528 16 257 11.3 19.3 0.00 0.00 0.00 71 1005.1
20260502223028 15 350 6.4 22.5 0.00 0.00 0.00 73 1005.2
20260502221526 15 347 8.0 16.1 0.00 0.00 0.00 73 1005.6
20260502220026 16 306 1.6 12.9 0.00 0.00 0.00 72 1005.7
20260502214525 15 226 4.8 12.9 0.00 0.00 0.00 72 1005.7
20260502213036 16 296 6.4 16.1 0.00 0.00 0.00 72 1005.7